Overview Statistics Trail Chart Weather Telemetry Raw packets
 

This is the latest recevied weather packets stored in our database for station/object KD0MAC. If no packets are shown the sender has not sent any weather packets the latest 10 day(s).

<< 66 67 68 69 70 71 72 >>
Time Temp. Humidity Pressure Rain* Wind** Luminosity Snow
1788301030 35° C 30% 1012.9 hPa 0 mm - 329 W/m² -
1788300730 36.11° C 32% 1012.9 hPa 0 mm - 153 W/m² -
1788300430 35° C 31% 1012.9 hPa 0 mm - 355 W/m² -
1788300129 35.56° C 33% 1012.9 hPa 0 mm - 306 W/m² -
1788299830 35° C 31% 1012.9 hPa 0 mm - 176 W/m² -
1788299530 36.11° C 28% 1012.9 hPa 0 mm - 168 W/m² -
1788299229 36.11° C 30% 1012.9 hPa 0 mm - 386 W/m² -
1788298932 34.44° C 34% 1013.2 hPa 0 mm - 407 W/m² -
1788298631 35° C 33% 1013.2 hPa 0 mm - 184 W/m² -
1788298330 35.56° C 31% 1013.2 hPa 0 mm - 151 W/m² -
1788298031 35.56° C 31% 1013.2 hPa 0 mm - 411 W/m² -
1788297730 36.67° C 29% 1013.2 hPa 0 mm - 429 W/m² -
1788297429 36.67° C 30% 1013.2 hPa 0 mm - 452 W/m² -
1788297129 36.67° C 34% 1013.2 hPa 0 mm - 465 W/m² -
1788296829 35.56° C 33% 1013.5 hPa 0 mm - 512 W/m² -
1788296530 35° C 33% 1013.5 hPa 0 mm - 138 W/m² -
1788296229 35° C 31% 1013.5 hPa 0 mm - 408 W/m² -
1788295930 35.56° C 32% 1013.5 hPa 0 mm - 234 W/m² -
1788295642 35° C 32% 1013.5 hPa 0 mm - 167 W/m² -
1788295331 36.67° C 30% 1013.5 hPa 0 mm - 396 W/m² -
1788295030 36.67° C 31% 1013.5 hPa 0 mm - 514 W/m² -
1788294730 36.11° C 31% 1013.9 hPa 0 mm - 541 W/m² -
1788294430 35.56° C 30% 1013.9 hPa 0 mm - 146 W/m² -
1788293830 35.56° C 30% 1013.9 hPa 0 mm - 507 W/m² -
1788293230 36.67° C 32% 1013.9 hPa 0 mm - 551 W/m² -

* Rain latest hour (hover to see other rain measurements)
** Current wind speed in m/s (hover to see current wind gust speed)